Weather History for KFAY - July, 2012

Change the Weather History Date:

Tuesday, July 24, 2012

  Actual Average Record
Temperature  
Mean Temperature 87 °F 81 °F  
Max Temperature 97 °F 91 °F 105 °F (1952)
Min Temperature 76 °F 72 °F 59 °F (1947)
Degree Days  
Heating Degree Days 0 0  
Month to date heating degree days 0 0  
Since 1 June heating degree days 0 0  
Since 1 July heating degree days 0 0  
Cooling Degree Days 22 16  
Month to date cooling degree days 455 395  
Year to date cooling degree days 1197 1075  
Since 1 June cooling degree days 776 791  
Growing Degree Days 36 (Base 50)    
Moisture  
Dew Point 73 °F    
Average Humidity 67    
Maximum Humidity 88    
Minimum Humidity 45    
Precipitation  
Precipitation 0.06 in 0.21 in 2.17 in (1919)
Month to date precipitation 4.64 4.54  
Year to date precipitation 23.87 24.56  
Sea Level Pressure  
Sea Level Pressure 29.92 in    
Wind  
Wind Speed 10 mph (WSW)    
Max Wind Speed 29 mph    
Max Gust Speed 43 mph    
Visibility 10 miles    
Events Rain , Thunderstorm    
T = Trace of Precipitation, MM = Missing Value Source: NWS Daily Summary

Daily Weather History Graph

Daily Weather History Graph

Search for Another Location

Airport or City:

Trip Planner

Search our weather history database for the weather conditions in past years. The results will help you decide how hot, cold, wet, or windy it might be!

Date:

Astronomy

Jul. 24, 2012 Rise Set
Actual Time 6:19 AM EDT 8:24 PM EDT
Civil Twilight 5:51 AM EDT 8:52 PM EDT
Nautical Twilight 5:16 AM EDT 9:26 PM EDT
Astronomical Twilight 4:39 AM EDT 10:04 PM EDT
Moon 11:57 AM EDT (7/24) 11:29 PM EDT (7/24)
Length of Visible Light 15h 01m
Length of Day
14h 04m
Waxing Crescent, 31% of the Moon is Illuminated
Jul 24
Waxing Crescent
Jul 26
First Quarter
Aug 1
Full
Aug 9
Last Quarter
Aug 17
New

Hourly Weather History & Observations

Time (EDT) Temp. Heat Index Dew Point Humidity Pressure Visibility Wind Dir Wind Speed Gust Speed Precip Events Conditions
12:15 AM 80.6 °F 85.4 °F 73.4 °F 79% 30.04 in 10.0 mi SSW 10.4 mph - N/A   Partly Cloudy
12:53 AM 79.0 °F - 72.0 °F 79% 30.01 in 10.0 mi SSW 8.1 mph - N/A   Clear
1:53 AM 79.0 °F - 73.9 °F 84% 29.99 in 10.0 mi SW 11.5 mph - N/A   Clear
2:53 AM 79.0 °F - 73.9 °F 84% 29.99 in 10.0 mi WSW 11.5 mph - N/A   Clear
3:53 AM 78.1 °F - 73.9 °F 87% 29.98 in 10.0 mi WSW 9.2 mph - N/A   Partly Cloudy
4:53 AM 78.1 °F - 73.9 °F 87% 29.97 in 10.0 mi WSW 9.2 mph - N/A   Clear
5:53 AM 77.0 °F - 73.0 °F 88% 29.96 in 10.0 mi WSW 10.4 mph - N/A   Clear
6:53 AM 77.0 °F - 73.0 °F 88% 29.97 in 10.0 mi WSW 10.4 mph - N/A   Clear
7:53 AM 79.0 °F - 73.0 °F 82% 29.96 in 10.0 mi WSW 10.4 mph - N/A   Clear
8:53 AM 82.0 °F 87.9 °F 73.9 °F 76% 29.97 in 10.0 mi WSW 9.2 mph - N/A   Clear
9:53 AM 84.9 °F 93.3 °F 75.0 °F 72% 29.96 in 10.0 mi WSW 10.4 mph - N/A   Clear
10:53 AM 89.1 °F 98.0 °F 73.9 °F 61% 29.93 in 10.0 mi West 8.1 mph - N/A   Clear
11:53 AM 91.0 °F 100.4 °F 73.9 °F 57% 29.91 in 10.0 mi West 10.4 mph - N/A   Clear
12:53 PM 93.9 °F 104.0 °F 73.9 °F 52% 29.90 in 10.0 mi WSW 11.5 mph - N/A   Clear
1:53 PM 96.1 °F 107.1 °F 73.9 °F 49% 29.87 in 10.0 mi West 16.1 mph 20.7 mph N/A   Clear
2:53 PM 97.0 °F 105.5 °F 72.0 °F 44% 29.86 in 10.0 mi West 11.5 mph - N/A   Clear
3:53 PM 95.0 °F 104.5 °F 73.0 °F 49% 29.83 in 10.0 mi West 16.1 mph - N/A Thunderstorm Partly Cloudy
4:39 PM 80.6 °F 84.6 °F 71.6 °F 74% 29.90 in 10.0 mi NW 17.3 mph 42.6 mph 0.00 in Thunderstorm Thunderstorm
4:53 PM 75.9 °F - 72.0 °F 87% 29.88 in 4.0 mi NNW 12.7 mph 21.9 mph 0.05 in Rain , Thunderstorm Thunderstorms and Rain
5:53 PM 78.1 °F - 73.0 °F 84% 29.88 in 10.0 mi WSW 5.8 mph - 0.01 in Rain Light Rain
6:53 PM 77.0 °F - 73.9 °F 90% 29.87 in 10.0 mi South 5.8 mph - 0.00 in   Mostly Cloudy
7:53 PM 77.0 °F - 73.0 °F 88% 29.83 in 10.0 mi SSW 4.6 mph - N/A   Clear
8:53 PM 78.1 °F - 73.9 °F 87% 29.81 in 10.0 mi NW 4.6 mph - N/A   Clear
9:53 PM 78.1 °F - 73.0 °F 84% 29.83 in 10.0 mi West 5.8 mph - N/A   Clear
10:53 PM 78.1 °F - 72.0 °F 81% 29.85 in 10.0 mi West 9.2 mph - N/A   Clear
11:53 PM 77.0 °F - 72.0 °F 84% 29.86 in 10.0 mi West 6.9 mph - N/A   Clear